Weather History for Broomfield, CO

Change the Weather History Date:

Wednesday, October 10, 2012

  Actual Average Record
Temperature  
Mean Temperature 48 °F -  
Max Temperature 59 °F 66 °F 82 °F (1989)
Min Temperature 37 °F 42 °F 25 °F (1987)
Degree Days  
Heating Degree Days 17    
Moisture  
Dew Point 33 °F    
Average Humidity 66    
Maximum Humidity 87    
Minimum Humidity 36    
Precipitation  
Precipitation 0.00 in - - ()
Sea Level Pressure  
Sea Level Pressure 30.12 in    
Wind  
Wind Speed 4 mph (NW)    
Max Wind Speed 7 mph    
Max Gust Speed -    
Visibility 10 miles    
Events      
Averages and records for this station are not official NWS values.
T = Trace of Precipitation, MM = Missing Value Source: NWS Daily Summary

Daily Weather History Graph

Daily Weather History Graph

Search for Another Location

Airport:

Trip Planner

Search our weather history database for the weather conditions in past years. The results will help you decide how hot, cold, wet, or windy it might be!

Date:

Astronomy

Oct. 10, 2012 Rise Set
Actual Time 7:06 AM MDT 6:27 PM MDT
Civil Twilight 6:39 AM MDT 6:54 PM MDT
Nautical Twilight 6:07 AM MDT 7:26 PM MDT
Astronomical Twilight 5:36 AM MDT 7:57 PM MDT
Moon 1:45 AM MDT (10/10) 3:31 PM MDT (10/10)
Length of Visible Light 12h 15m
Length of Day
11h 21m
Waning Crescent, 26% of the Moon is Illuminated
Oct 10
Waning Crescent
Oct 15
New
Oct 21
First Quarter
Oct 29
Full
Nov 6
Last Quarter

Hourly Weather History & Observations

Time (MDT) Temp. Windchill Dew Point Humidity Pressure Visibility Wind Dir Wind Speed Gust Speed Precip Events Conditions
12:15 AM 42.8 °F 40.1 °F 32.0 °F 66% 30.18 in 10.0 mi South 4.6 mph - N/A   Mostly Cloudy
12:34 AM 42.8 °F 41.1 °F 32.0 °F 66% 30.18 in 10.0 mi South 3.5 mph - N/A   Overcast
12:55 AM 42.8 °F 40.1 °F 32.0 °F 66% 30.18 in 10.0 mi South 4.6 mph - N/A   Overcast
1:05 AM 42.8 °F 40.1 °F 32.0 °F 66% 30.18 in 10.0 mi SSE 4.6 mph - N/A   Overcast
1:35 AM 42.8 °F 41.1 °F 32.0 °F 66% 30.18 in 10.0 mi SSE 3.5 mph - N/A   Scattered Clouds
1:55 AM 42.8 °F 41.1 °F 32.0 °F 66% 30.18 in 10.0 mi SSE 3.5 mph - N/A   Clear
2:15 AM 42.8 °F - 32.0 °F 66% 30.18 in 10.0 mi Calm Calm - N/A   Clear
2:33 AM 41.0 °F - 32.0 °F 70% 30.18 in 10.0 mi Calm Calm - N/A   Clear
2:55 AM 41.0 °F 39.0 °F 32.0 °F 70% 30.17 in 10.0 mi North 3.5 mph - N/A   Clear
3:15 AM 41.0 °F 38.0 °F 32.0 °F 70% 30.16 in 10.0 mi North 4.6 mph - N/A   Clear
3:35 AM 39.2 °F 35.0 °F 32.0 °F 75% 30.16 in 10.0 mi NNW 5.8 mph - N/A   Clear
3:54 AM 39.2 °F 35.9 °F 32.0 °F 75% 30.16 in 10.0 mi NNW 4.6 mph - N/A   Clear
4:12 AM 37.4 °F 32.8 °F 32.0 °F 81% 30.16 in 10.0 mi NNW 5.8 mph - N/A   Clear
4:35 AM 37.4 °F 32.8 °F 32.0 °F 81% 30.16 in 10.0 mi NNW 5.8 mph - N/A   Clear
4:45 AM 37.4 °F 33.8 °F 32.0 °F 81% 30.16 in 10.0 mi NNW 4.6 mph - N/A   Clear
5:15 AM 37.4 °F 34.9 °F 32.0 °F 81% 30.16 in 10.0 mi NNW 3.5 mph - N/A   Clear
5:34 AM 37.4 °F 33.8 °F 32.0 °F 81% 30.16 in 10.0 mi NNW 4.6 mph - N/A   Clear
5:45 AM 39.2 °F 35.0 °F 32.0 °F 75% 30.16 in 12.0 mi NNW 5.8 mph - N/A   Scattered Clouds
5:55 AM 37.4 °F 33.8 °F 32.0 °F 81% 30.16 in 10.0 mi NNW 4.6 mph - N/A   Clear
6:45 AM 37.4 °F 32.1 °F 32.0 °F 81% 30.16 in 12.0 mi NNW 6.9 mph - N/A   Mostly Cloudy
7:46 AM 37.4 °F 32.8 °F 32.0 °F 81% 30.15 in 12.0 mi NNW 5.8 mph - N/A   Mostly Cloudy
8:50 AM 39.2 °F 37.0 °F 35.6 °F 87% 30.15 in 10.0 mi Variable 3.5 mph - N/A   Mostly Cloudy
9:47 AM 41.0 °F - 32.0 °F 70% 30.15 in 20.0 mi Calm Calm - N/A   Mostly Cloudy
10:46 AM 42.8 °F 41.1 °F 35.6 °F 76% 30.12 in 8.0 mi SE 3.5 mph - N/A   Mostly Cloudy
11:46 AM 46.4 °F - 33.8 °F 62% 30.11 in 15.0 mi Calm Calm - N/A   Mostly Cloudy
12:50 PM 48.2 °F - 33.8 °F 58% 30.09 in 10.0 mi Variable 4.6 mph - N/A   Mostly Cloudy
1:50 PM 53.6 °F - 32.0 °F 44% 30.05 in 10.0 mi Calm Calm - N/A   Mostly Cloudy
2:50 PM 57.2 °F - 30.2 °F 36% 30.03 in 10.0 mi Variable 4.6 mph - N/A   Mostly Cloudy
3:53 PM 59.0 °F - 32.0 °F 36% 30.02 in 10.0 mi Variable 3.5 mph - N/A   Mostly Cloudy
4:48 PM 59.0 °F - 33.8 °F 39% 30.01 in 10.0 mi North 3.5 mph - N/A   Mostly Cloudy
5:53 PM 57.2 °F - 35.6 °F 44% 30.01 in 10.0 mi NW 5.8 mph - N/A   Mostly Cloudy
6:49 PM 53.6 °F - 35.6 °F 51% 30.01 in 10.0 mi Variable 3.5 mph - N/A   Mostly Cloudy
7:58 PM 50.0 °F - 35.6 °F 58% 30.02 in 10.0 mi Variable 3.5 mph - N/A   Mostly Cloudy
8:48 PM 50.0 °F - 35.6 °F 58% 30.03 in 10.0 mi Calm Calm - N/A   Mostly Cloudy
9:53 PM 50.0 °F - 37.4 °F 62% 30.03 in 10.0 mi Calm Calm - N/A   Mostly Cloudy
11:14 PM 50.0 °F - 35.6 °F 58% 30.03 in 10.0 mi SSW 3.5 mph - N/A   Clear
11:34 PM 50.0 °F - 35.6 °F 58% 30.03 in 10.0 mi SSE 3.5 mph - N/A   Clear
11:45 PM 46.4 °F 45.2 °F 33.8 °F 62% 30.02 in 10.0 mi SSW 3.5 mph - N/A   Clear